User: anonymous
Location: Charleston
(38.3500°N, 81.6330°W)
Time: 23:04:35
(UTC-04:00)
Language:

Cosmos 2228 - Orbit

View from above orbital plane
View from above orbital plane
View from above satellite
View from above satellite

Ground track
Ground track

The orbit data is extracted from the following two-line orbital elements,

1 22286U 92094A   14237.48356732  .00000696  00000-0  76798-4 0  4031
2 22286 082.5188 261.2794 0019585 286.3056 073.6007 14.85923939169904
Epoch (UTC): 25 August 2014 11:36:20
Eccentricity: 0.0019585
inclination: 82.5188°
perigee height: 597 km
apogee height: 624 km
right ascension of ascending node: 261.2794°
argument of perigee: 286.3056°
revolutions per day: 14.85923939
mean anomaly at epoch: 73.6007°
orbit number at epoch: 16990

The dashed part of the orbit path shows where the satellite is in the earth's shadow,  

DLR